Regional Weather Roundup
Issued by NWS New Orleans/Baton Rouge, LA

Home | Current Version | Previous Version | Text Only | Print | Product List | Glossary On
Versions: 1 2 3 4 5 6 7 8 9 10 11 12 13 14 15 16 17 18 19 20 21 22 23 24 25 26 27 28 29 30 31 32 33 34 35 36 37 38 39 40 41 42 43 44 45 46 47 48 49 50
000
ASUS44 KLIX 061111
RWRLIX
NEW ORLEANS REGIONAL WEATHER ROUNDUP
NATIONAL WEATHER SERVICE NEW ORLEANS LA
600 AM CDT SAT JUN 06 2020

NOTE: "FAIR" INDICATES FEW OR NO CLOUDS BELOW 12,000 FEET WITH NO
      SIGNIFICANT WEATHER AND/OR OBSTRUCTIONS TO VISIBILITY.
      SKY/WX - SKY CONDITION AND SIGNIFICANT WEATHER.
      TMP - AIR TEMPERATURE.     DP    - DEWPOINT TEMPERATURE.
      RH  - RELATIVE HUMIDITY.   PRES  - PRESSURE.
      HI  - HEAT INDEX.          WCI   - WIND CHILL INDEX.

*  THESE STATIONS ARE NOT NWS OR FAA STATIONS AND ARE NOT UNDER
   NWS QUALITY CONTROL.

LAZ038-040-048-061>063-065>067-069-061200-
SOUTHEAST LOUISIANA

CITY           SKY/WX    TMP DP  RH WIND       PRES   REMARKS
N.O. INTL ARPT CLOUDY    81  74  79 NE5       29.87F
N.O. LAKEFRONT MOCLDY    82  74  76 NE7       29.88S
N.O. DOWNTOWN* FAIR      80  73  79 VRB5      29.89S
SLIDELL        MOCLDY    74  71  91 N5        29.89S
BATON ROUGE    PTCLDY    69  67  93 N5        29.89S
BOOTHVILLE*    FAIR      77  74  88 E5        29.85S
BELLE CHASSE*  PTCLDY    77  75  93 NE3       29.87
BOGALUSA*      FAIR      70  67  90 CALM      29.92R
GALLIANO*      MOSUNNY   79  72  78 CALM      29.86R
NEW ROADS*     FAIR      70  66  88 NE3       29.89F
HAMMOND*       MOCLDY    70  68  94 E3        29.90S
HOUMA*         PTCLDY    75  73  94 NE7       29.86S
PORT FOURCHON* MOSUNNY   81  73  78 E15       29.84R

$$

MSZ070-080>082-061200-
SOUTHERN MISSISSIPPI

CITY           SKY/WX    TMP DP  RH WIND       PRES   REMARKS
MCCOMB         PTCLDY    68  66  93 E3        29.91F
GULFPORT       MOCLDY    75  71  87 N5        29.89R
BILOXI         MOCLDY    76  73  93 NE7       29.89S
PASCAGOULA     MOCLDY    75  72  90 CALM      29.91R

$$

COASTAL OBSERVATIONS
LAKE AND NEARSHORE STATIONS

STATION/POSITION TIME  SKY/WX   TEMP    WIND        PRES    WAVE
                                AIR SEA DIR/SP/G            HT/PER
                 (UTC)          (F)     (DEG/KT/KT) (MB)    (FT/S)
WAVELAND YACHT   1030            82 84   50/  8/  9 1012.4
GRAND ISLE       1024               84                N/A
SOUTHWEST PASS   1030            84     100/ 21/ 26 1008.5
NEW CANAL        1030            79 84   70/  4/  7 1010.9
SHELL BEACH      1030            80 86  100/  8/ 11 1011.7

OFFSHORE STATIONS

STATION/POSITION TIME  SKY/WX   TEMP    WIND        PRES    WAVE
                                AIR SEA DIR/SP/G            HT/PER
                 (UTC)          (F)     (DEG/KT/KT) (MB)    (FT/S)
64 S DAUPHIN ISL 1050            80     120/ 23/ 27 1011.6    5/ 6

$$




USA.gov is the U.S. government's official web portal to all federal, state and local government web resources and services.